[[{"header":{"parameterUnit":"m.s-1","parameterCategory":2,"la1":30.2991,"la2":30.254,"lo1":-89.0895,"lo2":-89.0444,"dy":0.0017,"dx":0.0017,"nx":28,"ny":28,"refTime":"2024-12-31T03:00:00:Z","depth":"0","parameterNumber":2,"parameterNumberName":"U-component_of_CURRENTS"},"data":[0,0,0,0,0,0,0,0,0,0,0,0,0,0,0,0,0,0,0,0,0,0,0,0,0,0,0,0,0,0,0,0,0,0,0,0,0,0,0,0,0,0,0,0,0,0,0,0,0,0,0,0,0,0,0,0,0,0,0.5194,0.5194,0,0.5119,0.5118,0.5116,0.5084,0.5086,0.5087,0.5088,0.4959,0.4955,0.495,0,0,0,0,0,0,0,0,0,0,0,0,0,0.5177,0.5177,0.5194,0.5194,0.5195,0.512,0.5118,0.5115,0.5084,0.5086,0.5087,0.5088,0.496,0.4955,0.495,0,0,0,0,0,0,0,0,0,0,0,0,0,0.5142,0.5178,0.5194,0.5178,0.5177,0.512,0.5118,0.5115,0.5084,0.5086,0.5087,0.5089,0.4962,0.4956,0.4949,0.4873,0,0,0.4928,0.4925,0,0,0,0,0,0,0,0,0.5144,0.5141,0.518,0.5179,0.5178,0.5123,0.5065,0.5035,0.5083,0.5107,0.5088,0.509,0.5015,0.5004,0.4971,0.4867,0.4861,0.4928,0.4924,0.4921,0.4919,0,0,0,0,0,0,0,0.5146,0.5143,0.5154,0.5181,0.5179,0.5129,0.5126,0.5058,0.5043,0.5105,0.5106,0.5114,0.5012,0.4977,0.4968,0.4859,0.4928,0.4922,0.4918,0.4915,0.48,0.4801,0,0,0,0,0,0,0.5183,0.5146,0.5156,0.5152,0.5177,0.513,0.5125,0.5129,0.5045,0.5037,0.5113,0.5113,0.4988,0.4976,0.4963,0.4942,0.4921,0.4915,0.4911,0.4799,0.48,0.4801,0,0,0,0,0,0,0.5182,0.5184,0.5159,0.5156,0.5151,0.513,0.5134,0.5127,0.5112,0.5053,0.5042,0.5108,0.4989,0.4973,0.4914,0.4935,0.4911,0.4905,0.4798,0.4799,0.48,0.4853,0,0,0,0,0,0,0.5182,0.5184,0.5189,0.5159,0.5154,0.514,0.5133,0.5125,0.5119,0.5119,0.5044,0.5034,0.4989,0.4925,0.4907,0.4925,0.49,0.4796,0.4798,0.48,0.485,0.4856,0.4861,0,0,0,0,0,0.5181,0.5189,0.519,0.5191,0.5165,0.5141,0.5132,0.5114,0.5118,0.5106,0.5059,0.5037,0.4926,0.4918,0.4898,0.4915,0.4795,0.4798,0.48,0.4848,0.4855,0.4861,0,0,0,0,0,0,0.5167,0.5187,0.5187,0.5195,0.5179,0.5141,0.5131,0.5122,0.5072,0.5073,0.5017,0.5,0.4973,0.493,0.4923,0.4893,0.4869,0.4868,0.4913,0.4919,0.4925,0.4964,0.4894,0,0,0,0,0,0.5173,0.5192,0.5187,0.5189,0.5188,0.5159,0.5148,0.5138,0.5101,0.5081,0.5028,0.4986,0.496,0.4929,0.489,0.484,0.4864,0.4851,0.4857,0.4861,0.4883,0.4937,0.495,0.4808,0.4808,0.4808,0,0,0.5154,0.5181,0.518,0.5189,0.5172,0.5151,0.5153,0.5143,0.5125,0.5072,0.5016,0.4997,0.4955,0.492,0.4905,0.4886,0.4915,0.4864,0.4868,0.4888,0.4941,0.4955,0.4967,0.481,0.4809,0.4809,0,0,0.5135,0.5164,0.5166,0.5162,0.5168,0.5154,0.5161,0.5127,0.5117,0.5063,0.505,0.5047,0.4953,0.4952,0.4937,0.4947,0.4952,0.4939,0.4979,0.5031,0.5043,0.5055,0.5109,0.5125,0.4931,0.4931,0.4931,0,0.511,0.5123,0.5155,0.5155,0.5152,0.5161,0.514,0.5124,0.5072,0.5077,0.5056,0.5019,0.4978,0.4991,0.5,0.4962,0.4993,0.4952,0.504,0.5052,0.5063,0.5115,0.5132,0.4934,0.4933,0.4933,0.4933,0,0.5086,0.5093,0.5095,0.5105,0.5104,0.5092,0.5095,0.509,0.5085,0.5077,0.5093,0.5057,0.5049,0.5044,0.5013,0.5079,0.5078,0.5051,0.5026,0.5081,0.5132,0.5148,0.4938,0.4937,0.4936,0.4935,0,0,0.5015,0.5068,0.5061,0.5063,0.5082,0.5072,0.5078,0.5087,0.5123,0.509,0.5131,0.5105,0.5131,0.5121,0.5112,0.5153,0.5248,0.5134,0.5135,0.5194,0.5375,0.5346,0.5361,0.5236,0.5239,0.5242,0.5383,0,0.4971,0.4975,0.5015,0.4989,0.498,0.5022,0.5032,0.5055,0.5092,0.5132,0.5159,0.5188,0.5147,0.5174,0.5207,0.5251,0.5293,0.5213,0.5309,0.5312,0.5285,0.538,0.5234,0.5345,0.5399,0.5402,0.5404,0,0.4909,0.4935,0.4917,0.496,0.4962,0.4956,0.5025,0.504,0.5132,0.518,0.5243,0.527,0.5339,0.5297,0.5402,0.5354,0.5372,0.5397,0.5402,0.5372,0.5314,0.5298,0.5373,0.5249,0.5429,0.5427,0.5425,0,0.4828,0.4851,0.4847,0.4851,0.4904,0.4919,0.4952,0.5045,0.5104,0.5233,0.5298,0.5383,0.5438,0.5485,0.5522,0.5476,0.5647,0.5581,0.5574,0.5571,0.5467,0.545,0.5438,0.566,0.566,0.5659,0.5659,0,0.4755,0.4738,0.4811,0.48,0.4817,0.4875,0.4931,0.5005,0.5143,0.5214,0.5316,0.5401,0.549,0.5576,0.5589,0.5654,0.5698,0.5621,0.562,0.548,0.5464,0.5363,0.5294,0.5665,0.5664,0.5663,0.5662,0,0.4638,0.4685,0.4682,0.475,0.4772,0.4781,0.4901,0.4958,0.5109,0.5218,0.5262,0.5449,0.5576,0.5657,0.5774,0.5742,0.5661,0.5804,0.5642,0.5618,0.5462,0.5401,0.5214,0.5054,0.5826,0.5827,0.5827,0,0.4573,0.4565,0.4631,0.4639,0.4662,0.471,0.475,0.4914,0.4992,0.5222,0.526,0.5457,0.557,0.577,0.58,0.5873,0.5666,0.5739,0.5613,0.5473,0.5404,0.5167,0.5027,0.5499,0.5497,0.5495,0.5493,0,0.4458,0.4491,0.4504,0.4536,0.4562,0.4599,0.4673,0.4732,0.4916,0.5028,0.5188,0.5321,0.5569,0.562,0.5755,0.5764,0.5483,0.5698,0.5592,0.5197,0.49,0.4737,0.5394,0.5475,0.5477,0.5478,0.5479,0.548,0.4373,0.4363,0.4402,0.4406,0.4435,0.4442,0.4421,0.4537,0.463,0.4743,0.4992,0.5116,0.5379,0.5579,0.5558,0.546,0.5373,0.5303,0.5262,0.5051,0.4816,0.5446,0.5493,0.5495,0.5497,0.5498,0.5499,0,0.4251,0.4261,0.4269,0.4257,0.421,0.429,0.4325,0.428,0.4296,0.4507,0.4639,0.4865,0.501,0.5167,0.5234,0.5058,0.4808,0.4912,0.4546,0.4443,0.5066,0.4974,0.4862,0.4862,0.4862,0.4862,0.4862,0.4863,0.4195,0.4151,0.4148,0.4024,0.4008,0.3895,0.3867,0.3851,0.3945,0.4007,0.4119,0.4322,0.4727,0.4972,0.4878,0.4753,0.4352,0.4186,0.4118,0.4594,0.4625,0.4655,0.4552,0.4353,0.4353,0.3322,0.3314,0.3309]},{"header":{"parameterUnit":"m.s-1","parameterCategory":2,"la1":30.2991,"la2":30.254,"lo1":-89.0895,"lo2":-89.0444,"dy":0.0017,"dx":0.0017,"nx":28,"ny":28,"refTime":"2024-12-31T03:00:00:Z","depth":"0","parameterNumber":3,"parameterNumberName":"V-component_of_CURRENTS"},"data":[0,0,0,0,0,0,0,0,0,0,0,0,0,0,0,0,0,0,0,0,0,0,0,0,0,0,0,0,0,0,0,0,0,0,0,0,0,0,0,0,0,0,0,0,0,0,0,0,0,0,0,0,0,0,0,0,0,0,0.0192,0.0192,0,0.0132,0.0131,0.013,0.0077,0.0077,0.0077,0.0076,-0.0043,-0.0046,-0.0049,0,0,0,0,0,0,0,0,0,0,0,0,0,0.0212,0.0212,0.0192,0.0192,0.0191,0.0132,0.0131,0.013,0.0078,0.0077,0.0077,0.0076,-0.0042,-0.0045,-0.0049,0,0,0,0,0,0,0,0,0,0,0,0,0,0.0181,0.0212,0.0192,0.016,0.0157,0.0132,0.0131,0.013,0.0078,0.0077,0.0077,0.0076,-0.0041,-0.0045,-0.0049,-0.0065,0,0,-0.0062,-0.0064,0,0,0,0,0,0,0,0,0.0182,0.018,0.0165,0.0162,0.0158,0.0114,0.0094,0.0063,0.0078,0.0105,0.0076,0.0076,0.0006,-0.0002,-0.0015,-0.007,-0.0076,-0.0063,-0.0065,-0.0067,-0.0068,0,0,0,0,0,0,0,0.0185,0.0182,0.0166,0.0165,0.0161,0.0131,0.0126,0.0088,0.0056,0.0102,0.0099,0.0097,0.0003,-0.0011,-0.0018,-0.0077,-0.0063,-0.0066,-0.0069,-0.0071,-0.0151,-0.0151,0,0,0,0,0,0,0.0201,0.0184,0.0168,0.0164,0.0172,0.0132,0.0126,0.0127,0.0058,0.0048,0.0097,0.0095,-0.0003,-0.0013,-0.0023,-0.0024,-0.0067,-0.0071,-0.0074,-0.0152,-0.0151,-0.0151,0,0,0,0,0,0,0.0201,0.02,0.017,0.0174,0.0169,0.0133,0.0133,0.0126,0.0117,0.0055,0.0043,0.0097,-0.0004,-0.0017,-0.0044,-0.003,-0.0073,-0.0077,-0.0152,-0.0152,-0.0151,-0.004,0,0,0,0,0,0,0.0202,0.0201,0.0204,0.0176,0.0169,0.0172,0.0134,0.0125,0.0117,0.0113,0.005,0.0039,-0.0006,-0.0037,-0.0048,-0.0036,-0.008,-0.0153,-0.0152,-0.0151,-0.0044,-0.0035,-0.0028,0,0,0,0,0,0.0203,0.022,0.0205,0.0203,0.0176,0.0174,0.0168,0.0138,0.0118,0.0125,0.0081,0.0041,-0.0041,-0.004,-0.0053,-0.0042,-0.0153,-0.0152,-0.0151,-0.0048,-0.0037,-0.0028,0,0,0,0,0,0,0.0231,0.0216,0.0198,0.0209,0.0197,0.0166,0.0169,0.0147,0.0118,0.0111,0.0049,0.0035,0.0014,-0.003,-0.0027,-0.0065,-0.0105,-0.0107,-0.0022,-0.0013,-0.0005,0.0027,-0.0084,0,0,0,0,0,0.0239,0.0247,0.0226,0.0235,0.0233,0.0201,0.0194,0.0176,0.0149,0.0135,0.0093,0.0044,0.0007,-0.0013,-0.0055,-0.0071,-0.0113,-0.0075,-0.0067,-0.006,-0.0044,-0.0091,-0.0085,-0.0148,-0.0148,-0.0148,0,0,0.0252,0.0245,0.0247,0.0241,0.0227,0.0244,0.0196,0.0197,0.0208,0.0126,0.0125,0.0071,0.0008,-0.001,-0.0024,-0.0043,-0.0066,-0.0059,-0.0052,-0.004,-0.0089,-0.0083,-0.0078,-0.0147,-0.0147,-0.0147,0,0,0.0297,0.0276,0.0304,0.0302,0.0294,0.0277,0.0284,0.0259,0.0244,0.0233,0.0177,0.014,0.0082,0.0046,0.0018,0.0044,-0.0023,0.0023,0.009,0.0045,0.005,0.0054,0.0008,0.0007,0.0028,0.0028,0.0028,0,0.0312,0.0344,0.0311,0.0342,0.0353,0.0301,0.0341,0.0319,0.0289,0.0287,0.0248,0.017,0.0112,0.0096,0.01,0.0064,0.0025,0.0063,0.0058,0.0061,0.0063,0.0014,0.0012,0.0033,0.0033,0.0032,0.0032,0,0.0385,0.0407,0.0426,0.0447,0.0452,0.0476,0.0451,0.0445,0.0413,0.0391,0.0364,0.0281,0.024,0.0207,0.0159,0.0149,0.0112,0.0075,0.0041,0.0076,0.0022,0.0018,0.0041,0.0039,0.0038,0.0036,0,0,0.0431,0.0471,0.0477,0.0513,0.0512,0.0532,0.0545,0.0553,0.0581,0.0511,0.0534,0.0443,0.0393,0.0358,0.0286,0.0237,0.0209,0.0171,0.0165,0.0138,0.0109,0.0102,0.0096,0.017,0.017,0.017,0.0065,0,0.0502,0.0588,0.0583,0.0663,0.0709,0.0673,0.0697,0.069,0.0671,0.0676,0.0573,0.0559,0.0453,0.0436,0.0371,0.0261,0.0202,0.0241,0.0066,0.0062,0.0062,0.0093,0.0129,0.0041,0.006,0.0059,0.0058,0,0.0581,0.0631,0.0723,0.0787,0.0803,0.0833,0.0876,0.0898,0.0877,0.0862,0.0817,0.0736,0.066,0.0558,0.0384,0.0414,0.0273,0.0168,0.0161,0.0117,0.0048,0.0006,0.0031,-0.0206,0.0051,0.0051,0.0052,0,0.0649,0.0733,0.0813,0.0834,0.0888,0.0917,0.0944,0.0952,0.1008,0.0987,0.1013,0.0893,0.0856,0.0665,0.0445,0.0413,0.0249,0.0176,0.003,0.0027,0.0007,0.0003,-0.0203,0.0042,0.0042,0.0042,0.0042,0,0.0734,0.0799,0.0852,0.0897,0.1004,0.1004,0.1113,0.1122,0.1166,0.1253,0.1119,0.1156,0.0881,0.0748,0.051,0.0281,0.0297,0.0056,0.0008,0.0045,0.0047,-0.0203,-0.0353,0.0038,0.0039,0.004,0.004,0,0.0802,0.0831,0.0936,0.1008,0.1041,0.1119,0.1242,0.133,0.1342,0.1451,0.1448,0.1367,0.1205,0.0916,0.0628,0.0399,0.0014,0.0056,0.0122,0.0084,-0.0277,-0.042,-0.0693,-0.0803,-0.0122,-0.0123,-0.0123,0,0.0847,0.0906,0.1025,0.1101,0.1139,0.1257,0.135,0.1415,0.1531,0.1593,0.1664,0.1541,0.151,0.1096,0.0671,0.0269,0.0005,0.0012,-0.0051,-0.0277,-0.0475,-0.0588,-0.0669,-0.0047,-0.0047,-0.0047,-0.0047,0,0.0938,0.0971,0.1058,0.1215,0.1327,0.1478,0.1617,0.1737,0.1822,0.1923,0.2037,0.2014,0.1627,0.1286,0.0727,0.0414,-0.015,0.0001,-0.0254,-0.0441,-0.0559,-0.0692,-0.0008,-0.0046,-0.0046,-0.0046,-0.0046,-0.0046,0.1002,0.1081,0.1191,0.1346,0.1486,0.1674,0.1817,0.1992,0.2198,0.2374,0.2336,0.2383,0.1837,0.111,0.0655,-0.0135,-0.017,-0.0372,-0.053,-0.0626,-0.0724,-0.003,-0.0108,-0.0108,-0.0109,-0.0109,-0.0109,0,0.1087,0.1176,0.1319,0.1502,0.1671,0.173,0.1984,0.215,0.2415,0.2605,0.2725,0.2519,0.1837,0.1091,0.0039,-0.0534,-0.0771,-0.0864,-0.1031,-0.1092,-0.0485,-0.0471,-0.0603,-0.0603,-0.0603,-0.0603,-0.0602,-0.0602,0.1132,0.1274,0.1347,0.1621,0.1757,0.1995,0.2149,0.241,0.2618,0.2886,0.2972,0.2987,0.2421,0.0523,-0.0746,-0.1049,-0.1476,-0.1573,-0.1786,-0.1387,-0.1353,-0.1321,-0.1342,-0.1656,-0.1657,-0.2297,-0.2304,-0.2309]}],[{"header":{"parameterUnit":"m.s-1","parameterCategory":2,"la1":30.2991,"la2":30.254,"lo1":-89.0895,"lo2":-89.0444,"dy":0.0017,"dx":0.0017,"nx":28,"ny":28,"refTime":"2024-12-31T03:00:00:Z","depth":"2","parameterNumber":2,"parameterNumberName":"U-component_of_CURRENTS"},"data":[0,0,0,0,0,0,0,0,0,0,0,0,0,0,0,0,0,0,0,0,0,0,0,0,0,0,0,0,0,0,0,0,0,0,0,0,0,0,0,0,0,0,0,0,0,0,0,0,0,0,0,0,0,0,0,0,0,0,0.3757,0.3759,0,0.3834,0.3835,0.3835,0.3858,0.3858,0.3858,0.3858,0.389,0.3891,0.3892,0,0,0,0,0,0,0,0,0,0,0,0,0,0.3693,0.3693,0.3757,0.3759,0.376,0.3834,0.3835,0.3836,0.3858,0.3858,0.3858,0.3858,0.389,0.3891,0.3892,0,0,0,0,0,0,0,0,0,0,0,0,0,0.3737,0.3693,0.3757,0.3783,0.3786,0.3834,0.3835,0.3836,0.3858,0.3858,0.3858,0.3858,0.3889,0.3891,0.3892,0.3903,0,0,0.3896,0.3897,0,0,0,0,0,0,0,0,0.3734,0.3739,0.3778,0.3781,0.3785,0.384,0.3824,0.3857,0.3858,0.3827,0.3858,0.3858,0.3871,0.3874,0.3885,0.3904,0.3906,0.3896,0.3897,0.3898,0.3898,0,0,0,0,0,0,0,0.3731,0.3736,0.3784,0.3779,0.3784,0.3812,0.3817,0.3831,0.3845,0.383,0.3833,0.3847,0.3873,0.3883,0.3885,0.3906,0.3896,0.3898,0.3898,0.3899,0.3994,0.3995,0,0,0,0,0,0,0.3726,0.3733,0.3782,0.3787,0.3763,0.3814,0.3819,0.3819,0.3846,0.3852,0.3847,0.3848,0.3881,0.3884,0.3887,0.3952,0.3898,0.3899,0.39,0.3992,0.3994,0.3996,0,0,0,0,0,0,0.3724,0.3729,0.3779,0.3765,0.3774,0.3815,0.3815,0.3821,0.385,0.386,0.3864,0.3872,0.3881,0.3885,0.392,0.3951,0.39,0.3901,0.399,0.3992,0.3995,0.405,0,0,0,0,0,0,0.3721,0.3727,0.3734,0.3764,0.3775,0.3823,0.3816,0.3823,0.386,0.3862,0.3883,0.3885,0.3881,0.3918,0.3922,0.3952,0.3902,0.3988,0.3991,0.3994,0.4046,0.4054,0.4061,0,0,0,0,0,0.3718,0.3726,0.3733,0.374,0.3779,0.3825,0.3833,0.3859,0.3861,0.3883,0.3898,0.3885,0.3941,0.3921,0.3924,0.3956,0.3986,0.399,0.3994,0.4042,0.4052,0.406,0,0,0,0,0,0,0.3695,0.373,0.3739,0.3754,0.3796,0.3831,0.3858,0.3872,0.3902,0.3906,0.3906,0.391,0.3957,0.3949,0.3927,0.3994,0.3962,0.3967,0.3998,0.4007,0.4014,0.4029,0.3903,0,0,0,0,0,0.3695,0.3713,0.3752,0.3767,0.3792,0.3828,0.3853,0.3873,0.3901,0.3915,0.3931,0.3948,0.3973,0.3984,0.4005,0.4036,0.4055,0.406,0.4067,0.4074,0.4089,0.4145,0.4159,0.4008,0.4008,0.4008,0,0,0.3692,0.3713,0.3724,0.3766,0.3799,0.384,0.3842,0.389,0.3922,0.3913,0.3963,0.3981,0.399,0.4032,0.4051,0.4029,0.4128,0.4078,0.4084,0.4096,0.4151,0.4166,0.4179,0.4011,0.401,0.401,0,0,0.3697,0.3717,0.3738,0.3776,0.3834,0.3861,0.3879,0.393,0.3956,0.4002,0.401,0.4049,0.4077,0.4098,0.4107,0.4169,0.4172,0.4174,0.4216,0.427,0.4283,0.4295,0.4343,0.4358,0.4169,0.4169,0.4169,0,0.3697,0.372,0.3755,0.379,0.3826,0.3872,0.3911,0.3948,0.4002,0.403,0.4025,0.4105,0.411,0.4168,0.419,0.4187,0.4217,0.4178,0.4281,0.4292,0.4303,0.4349,0.4366,0.4172,0.4172,0.4172,0.4172,0,0.3716,0.3748,0.377,0.3827,0.3869,0.3915,0.3971,0.4018,0.4051,0.4084,0.416,0.4183,0.4228,0.4238,0.4231,0.4314,0.4312,0.4289,0.4256,0.4322,0.4366,0.4382,0.4177,0.4176,0.4175,0.4174,0,0,0.3681,0.3768,0.3776,0.3805,0.3894,0.3922,0.3996,0.4068,0.4126,0.4175,0.4248,0.4292,0.4317,0.4331,0.434,0.4385,0.4484,0.4374,0.4375,0.4419,0.4614,0.4554,0.4566,0.4483,0.4486,0.4488,0.4615,0,0.3691,0.3746,0.3797,0.3858,0.3894,0.3968,0.4033,0.4103,0.4176,0.4261,0.4302,0.438,0.4348,0.4392,0.4429,0.4486,0.4529,0.4453,0.4546,0.4549,0.4486,0.4583,0.4224,0.4302,0.4631,0.4633,0.4635,0,0.3687,0.3727,0.3783,0.3872,0.3898,0.3948,0.4064,0.4133,0.4263,0.4328,0.4412,0.446,0.455,0.4512,0.4627,0.4583,0.4605,0.4633,0.4638,0.4575,0.4519,0.429,0.4319,0.4662,0.466,0.4658,0.4656,0,0.3618,0.3711,0.375,0.3782,0.3895,0.3943,0.4015,0.4148,0.4227,0.4391,0.4468,0.4573,0.4645,0.4698,0.4745,0.4705,0.4869,0.4813,0.4777,0.4772,0.4482,0.4447,0.4891,0.4891,0.4891,0.4891,0.489,0,0.359,0.362,0.3723,0.3742,0.3806,0.3905,0.4004,0.4107,0.4273,0.4367,0.4495,0.4591,0.4699,0.479,0.4807,0.4855,0.4916,0.4817,0.4814,0.4491,0.4458,0.4771,0.4755,0.4895,0.4894,0.4893,0.4893,0,0.3504,0.3572,0.3619,0.3735,0.3773,0.3819,0.3984,0.4061,0.4238,0.4375,0.4435,0.464,0.4774,0.486,0.4979,0.4935,0.499,0.498,0.4601,0.455,0.4839,0.4824,0.4965,0.4964,0.4964,0.4963,0.4963,0,0.3462,0.3479,0.3586,0.3613,0.3669,0.3759,0.3827,0.402,0.4113,0.438,0.443,0.4643,0.4751,0.4927,0.4923,0.4973,0.5015,0.4639,0.4491,0.4871,0.4853,0.484,0.4827,0.4126,0.4119,0.4113,0.4108,0,0.3384,0.3428,0.3466,0.3527,0.3589,0.3651,0.3765,0.3829,0.405,0.4178,0.4359,0.449,0.4696,0.4611,0.4702,0.4664,0.4606,0.4522,0.5027,0.4172,0.4092,0.4071,0.4083,0.4055,0.406,0.4064,0.4067,0.4069,0.3321,0.3326,0.3381,0.3423,0.3482,0.3512,0.3512,0.3645,0.3753,0.3895,0.4133,0.4204,0.4316,0.429,0.4189,0.4107,0.4412,0.4188,0.42,0.422,0.4109,0.4034,0.3965,0.397,0.3974,0.3977,0.398,0,0.3225,0.3242,0.3274,0.3297,0.3285,0.3379,0.3438,0.3403,0.3439,0.3631,0.376,0.3552,0.3556,0.3645,0.3466,0.3501,0.3407,0.3336,0.3162,0.3221,0.3273,0.3105,0.2699,0.2694,0.2689,0.2685,0,0,0.3176,0.3149,0.3157,0.3086,0.3104,0.3032,0.3022,0.301,0.3081,0.3077,0.3102,0.3412,0.3573,0.3078,0.3044,0.283,0.2985,0.2725,0.377,0.3626,0.367,0.3805,0.3623,0,0,0,0,0]},{"header":{"parameterUnit":"m.s-1","parameterCategory":2,"la1":30.2991,"la2":30.254,"lo1":-89.0895,"lo2":-89.0444,"dy":0.0017,"dx":0.0017,"nx":28,"ny":28,"refTime":"2024-12-31T03:00:00:Z","depth":"2","parameterNumber":3,"parameterNumberName":"V-component_of_CURRENTS"},"data":[0,0,0,0,0,0,0,0,0,0,0,0,0,0,0,0,0,0,0,0,0,0,0,0,0,0,0,0,0,0,0,0,0,0,0,0,0,0,0,0,0,0,0,0,0,0,0,0,0,0,0,0,0,0,0,0,0,0,0.0233,0.0232,0,0.0166,0.0165,0.0164,0.0114,0.0114,0.0114,0.0114,-0.0005,-0.0008,-0.0011,0,0,0,0,0,0,0,0,0,0,0,0,0,0.025,0.025,0.0233,0.0232,0.0232,0.0166,0.0165,0.0164,0.0114,0.0114,0.0114,0.0113,-0.0004,-0.0007,-0.0011,0,0,0,0,0,0,0,0,0,0,0,0,0,0.0217,0.025,0.0233,0.0201,0.0197,0.0167,0.0165,0.0164,0.0114,0.0114,0.0114,0.0113,-0.0003,-0.0007,-0.0011,-0.0031,0,0,-0.0025,-0.0027,0,0,0,0,0,0,0,0,0.0219,0.0216,0.0206,0.0203,0.0199,0.015,0.0128,0.0097,0.0114,0.0144,0.0114,0.0113,0.0044,0.0036,0.0022,-0.0036,-0.0041,-0.0025,-0.0028,-0.003,-0.0031,0,0,0,0,0,0,0,0.0221,0.0218,0.0204,0.0205,0.0201,0.0166,0.0162,0.0121,0.0094,0.0141,0.0138,0.0134,0.0041,0.0026,0.0018,-0.0043,-0.0025,-0.0029,-0.0032,-0.0033,-0.012,-0.012,0,0,0,0,0,0,0.0238,0.0221,0.0207,0.0203,0.021,0.0167,0.0161,0.0164,0.0095,0.0086,0.0134,0.0132,0.0034,0.0023,0.0014,0.0006,-0.003,-0.0034,-0.0036,-0.0121,-0.012,-0.012,0,0,0,0,0,0,0.0239,0.0237,0.0209,0.0211,0.0205,0.0168,0.0171,0.0163,0.0151,0.0091,0.008,0.0131,0.0033,0.002,-0.0012,0.0,-0.0036,-0.004,-0.0121,-0.0121,-0.012,-0.0023,0,0,0,0,0,0,0.0239,0.0238,0.0243,0.0213,0.0206,0.0204,0.0171,0.0162,0.015,0.0147,0.0085,0.0073,0.0032,-0.0005,-0.0016,-0.0007,-0.0043,-0.0121,-0.0121,-0.012,-0.0026,-0.0019,-0.0013,0,0,0,0,0,0.024,0.0258,0.0244,0.0242,0.0216,0.0205,0.0198,0.0167,0.0151,0.0153,0.0112,0.0075,-0.0009,-0.0008,-0.0021,-0.0013,-0.0122,-0.0121,-0.012,-0.0029,-0.002,-0.0013,0,0,0,0,0,0,0.0267,0.0254,0.0238,0.025,0.0232,0.0197,0.0196,0.0175,0.0143,0.0139,0.0079,0.0065,0.0041,-0.0,0.0003,-0.0037,-0.0072,-0.0074,0.0002,0.0009,0.0016,0.0043,-0.0047,0,0,0,0,0,0.0276,0.0287,0.0263,0.0271,0.0266,0.0231,0.0221,0.0204,0.0174,0.016,0.0117,0.007,0.0032,0.0012,-0.003,-0.005,-0.0093,-0.0055,-0.0048,-0.0042,-0.003,-0.0081,-0.0077,-0.0118,-0.0118,-0.0118,0,0,0.0287,0.0283,0.0287,0.0278,0.0259,0.0268,0.0224,0.0221,0.0227,0.0151,0.0142,0.0092,0.0032,0.0011,-0.0004,-0.0021,-0.0054,-0.0041,-0.0035,-0.0027,-0.008,-0.0076,-0.0072,-0.0117,-0.0117,-0.0117,0,0,0.0325,0.0313,0.0336,0.033,0.0316,0.0297,0.0302,0.0273,0.0257,0.024,0.0189,0.0152,0.0092,0.0056,0.0029,0.0047,-0.0016,0.0029,0.0086,0.0037,0.004,0.0042,-0.0007,-0.001,0.0033,0.0034,0.0034,0,0.0337,0.0367,0.0339,0.0361,0.0367,0.0319,0.0347,0.0325,0.0289,0.0284,0.0251,0.0169,0.0116,0.0093,0.0098,0.0065,0.0024,0.0063,0.0047,0.0049,0.0049,-0.0002,-0.0006,0.0038,0.0038,0.0037,0.0037,0,0.0395,0.0416,0.043,0.0445,0.0445,0.0462,0.0435,0.0427,0.0398,0.0373,0.0341,0.0262,0.0219,0.019,0.0147,0.013,0.0096,0.0063,0.0033,0.006,0.0003,-0.0003,0.0045,0.0044,0.0042,0.0041,0,0,0.0432,0.0466,0.0471,0.05,0.0496,0.0508,0.0516,0.0515,0.0534,0.0468,0.0476,0.0393,0.0348,0.0314,0.0249,0.0199,0.0163,0.0141,0.0136,0.0103,0.0053,0.0032,0.0022,0.0127,0.0127,0.0127,0.0012,0,0.0485,0.0556,0.0553,0.0617,0.0653,0.0622,0.0638,0.0627,0.0605,0.0597,0.0505,0.0484,0.0397,0.0379,0.0315,0.0209,0.0151,0.0197,0.0022,0.0017,0.0004,0.0016,0.0046,-0.0053,0.0005,0.0004,0.0003,0,0.0546,0.0589,0.0665,0.072,0.0731,0.0754,0.0784,0.0798,0.0768,0.075,0.0703,0.0629,0.0553,0.047,0.0297,0.0331,0.0204,0.0106,0.0099,0.0043,-0.0016,-0.0073,-0.0067,-0.0008,-0.0007,-0.0006,-0.0006,0,0.06,0.0669,0.0738,0.0756,0.08,0.0824,0.0845,0.0843,0.0886,0.0854,0.087,0.0752,0.0709,0.0536,0.0334,0.0315,0.0136,0.0083,-0.0062,-0.0065,-0.0091,-0.0095,-0.0046,-0.0046,-0.0045,-0.0045,-0.0045,0,0.0667,0.0721,0.077,0.0809,0.0898,0.0898,0.0987,0.0987,0.1014,0.1078,0.0959,0.0974,0.0725,0.0589,0.038,0.0153,0.0169,-0.0046,-0.0092,-0.0057,-0.0057,-0.006,-0.006,-0.005,-0.0049,-0.0048,-0.0047,0,0.072,0.0746,0.0836,0.09,0.0929,0.0995,0.1099,0.1169,0.117,0.1247,0.1244,0.1148,0.0977,0.0712,0.0438,0.0235,0.0005,-0.0086,-0.0026,-0.0063,-0.0181,-0.0175,-0.0261,-0.0263,-0.0264,-0.0266,-0.0267,0,0.0755,0.0806,0.0912,0.0978,0.1012,0.1114,0.1195,0.1246,0.1337,0.1363,0.1413,0.1275,0.121,0.0803,0.0424,0.0056,0.0004,-0.017,-0.0206,-0.0165,-0.0202,-0.0193,-0.0186,-0.021,-0.021,-0.0211,-0.0211,0,0.0828,0.0859,0.0935,0.1074,0.1173,0.1305,0.1422,0.1517,0.1578,0.1642,0.1697,0.1644,0.1261,0.091,0.0401,0.0146,-0.0109,-0.0189,-0.016,-0.015,-0.0123,-0.0157,-0.015,-0.0214,-0.0214,-0.0213,-0.0213,-0.0213,0.0881,0.0947,0.1046,0.1181,0.1306,0.1468,0.1587,0.1722,0.1874,0.1972,0.1914,0.1846,0.1425,0.0797,0.0346,-0.0134,-0.0114,-0.0291,-0.0287,-0.0284,-0.0247,-0.0223,-0.0326,-0.0327,-0.0327,-0.0327,-0.0327,0,0.095,0.1025,0.115,0.1308,0.1456,0.1515,0.1724,0.1846,0.2032,0.2119,0.2164,0.1769,0.1363,0.0871,0.0166,-0.0253,-0.029,-0.0393,-0.0343,-0.0336,-0.0331,-0.0296,-0.039,-0.0391,-0.0392,-0.0393,0,0,0.0984,0.1105,0.1168,0.1402,0.1523,0.1728,0.1853,0.2033,0.2147,0.2244,0.2215,0.2131,0.1524,0.1008,0.0431,0.0022,-0.0062,-0.0066,0.003,0.0163,0.0174,-0.0228,-0.0161,0,0,0,0,0]}],[{"header":{"parameterUnit":"m.s-1","parameterCategory":2,"la1":30.2991,"la2":30.254,"lo1":-89.0895,"lo2":-89.0444,"dy":0.0017,"dx":0.0017,"nx":28,"ny":28,"refTime":"2024-12-31T03:00:00:Z","depth":"4","parameterNumber":2,"parameterNumberName":"U-component_of_CURRENTS"},"data":[0,0,0,0,0,0,0,0,0,0,0,0,0,0,0,0,0,0,0,0,0,0,0,0,0,0,0,0,0,0,0,0,0,0,0,0,0,0,0,0,0,0,0,0,0,0,0,0,0,0,0,0,0,0,0,0,0,0,0.2363,0.2365,0,0.2493,0.2495,0.2496,0.2591,0.2592,0.2593,0.2594,0.2744,0.2747,0.275,0,0,0,0,0,0,0,0,0,0,0,0,0,0.2238,0.2239,0.2363,0.2365,0.2367,0.2493,0.2495,0.2496,0.2591,0.2592,0.2593,0.2594,0.2743,0.2747,0.2751,0,0,0,0,0,0,0,0,0,0,0,0,0,0.2321,0.224,0.2363,0.243,0.2438,0.2493,0.2495,0.2497,0.2591,0.2592,0.2594,0.2595,0.2742,0.2746,0.2751,0.2752,0,0,0.2765,0.2767,0,0,0,0,0,0,0,0,0.2316,0.2325,0.2419,0.2426,0.2434,0.2529,0.2506,0.2584,0.259,0.2531,0.2594,0.2596,0.2674,0.2684,0.2703,0.2759,0.2765,0.2766,0.2769,0.2771,0.2772,0,0,0,0,0,0,0,0.231,0.232,0.2413,0.242,0.243,0.2468,0.2481,0.2521,0.2592,0.2536,0.2544,0.256,0.2678,0.2698,0.2707,0.2767,0.2766,0.277,0.2773,0.2775,0.2977,0.2979,0,0,0,0,0,0,0.2293,0.2315,0.2409,0.2417,0.2379,0.2469,0.2483,0.2496,0.2592,0.2608,0.2559,0.2564,0.269,0.2702,0.2713,0.2855,0.2771,0.2775,0.2778,0.2974,0.2978,0.298,0,0,0,0,0,0,0.229,0.23,0.2404,0.237,0.2387,0.247,0.2483,0.2498,0.2571,0.2609,0.2625,0.2623,0.2691,0.2707,0.2802,0.2856,0.2777,0.2781,0.2971,0.2975,0.2979,0.3051,0,0,0,0,0,0,0.2286,0.2298,0.2326,0.2369,0.2388,0.2471,0.2482,0.2499,0.2576,0.2586,0.2668,0.2681,0.2694,0.2795,0.2807,0.2861,0.2785,0.2968,0.2973,0.2978,0.3045,0.3056,0.3066,0,0,0,0,0,0.2281,0.2304,0.2326,0.234,0.2415,0.2473,0.2487,0.2549,0.2578,0.2619,0.2682,0.2681,0.2834,0.2801,0.2814,0.2871,0.2966,0.2972,0.2977,0.304,0.3054,0.3066,0,0,0,0,0,0,0.227,0.2317,0.2343,0.2383,0.2441,0.2491,0.2541,0.2577,0.2658,0.2686,0.2716,0.2733,0.2837,0.2845,0.2808,0.2944,0.2899,0.2907,0.2942,0.2956,0.2966,0.2964,0.2789,0,0,0,0,0,0.2276,0.2311,0.2361,0.2403,0.2434,0.2497,0.2539,0.2583,0.2646,0.2686,0.2744,0.2805,0.2861,0.2903,0.2952,0.3026,0.3033,0.3071,0.3082,0.3091,0.3099,0.3157,0.3173,0.2999,0.2999,0.2999,0,0,0.2288,0.2318,0.2342,0.2405,0.2457,0.2512,0.2528,0.2608,0.2669,0.2688,0.2806,0.2852,0.2891,0.2979,0.3025,0.2999,0.3146,0.3098,0.3105,0.3109,0.3165,0.3181,0.3196,0.3003,0.3003,0.3002,0,0,0.231,0.2355,0.2389,0.244,0.2523,0.2561,0.2594,0.2678,0.2737,0.2838,0.287,0.295,0.3041,0.3078,0.3104,0.3202,0.3202,0.3227,0.328,0.3336,0.3351,0.3363,0.3397,0.3412,0.3229,0.3229,0.3229,0,0.2327,0.2371,0.2413,0.2461,0.2514,0.2586,0.2645,0.2709,0.2819,0.2871,0.2891,0.3047,0.3083,0.3175,0.3215,0.3226,0.3254,0.3225,0.3349,0.3362,0.3373,0.3405,0.342,0.3233,0.3233,0.3232,0.3232,0,0.2361,0.2421,0.2452,0.2531,0.2591,0.2661,0.2742,0.2827,0.2905,0.2962,0.3095,0.3155,0.3241,0.3269,0.3276,0.3384,0.3375,0.3356,0.3311,0.3395,0.3423,0.3438,0.3239,0.3238,0.3236,0.3235,0,0,0.2336,0.2452,0.2471,0.252,0.264,0.2684,0.2799,0.2904,0.299,0.3097,0.3203,0.3303,0.3346,0.3378,0.3408,0.346,0.3566,0.3455,0.3456,0.3478,0.3692,0.3463,0.3457,0.3578,0.3581,0.3583,0.3678,0,0.236,0.2442,0.2506,0.2612,0.2663,0.2768,0.2863,0.2971,0.3078,0.32,0.3276,0.3394,0.3383,0.3454,0.3502,0.3564,0.361,0.3542,0.3616,0.3617,0.3396,0.3468,0.3593,0.3689,0.3692,0.3694,0.3696,0,0.2364,0.2422,0.2518,0.2647,0.2684,0.2769,0.2932,0.3031,0.3199,0.329,0.3408,0.3479,0.3598,0.3573,0.3699,0.3665,0.3688,0.3713,0.3717,0.3486,0.3416,0.3589,0.3723,0.3721,0.3719,0.3717,0.3715,0,0.2291,0.2427,0.2503,0.255,0.2708,0.2792,0.2896,0.3066,0.3166,0.3369,0.3462,0.3595,0.3692,0.3751,0.3805,0.3779,0.3922,0.388,0.3689,0.3674,0.3819,0.3804,0.3957,0.3957,0.3956,0.3956,0.3956,0,0.2258,0.2327,0.2486,0.2527,0.264,0.277,0.2918,0.3046,0.3239,0.3346,0.3509,0.36,0.3749,0.3836,0.3855,0.3813,0.3961,0.3707,0.3685,0.3847,0.3835,0.3829,0.3813,0.396,0.3959,0.3958,0.3957,0,0.2162,0.2268,0.2364,0.2544,0.2608,0.2695,0.2918,0.3013,0.322,0.3372,0.3446,0.365,0.3757,0.3857,0.3968,0.3853,0.3856,0.3802,0.3984,0.3969,0.3558,0.3546,0.3587,0.358,0.3574,0.3569,0.3564,0,0.2114,0.2156,0.235,0.2411,0.2507,0.2659,0.2758,0.2985,0.3079,0.3358,0.3397,0.3597,0.3697,0.3665,0.3789,0.3807,0.376,0.3728,0.3618,0.3548,0.3523,0.352,0.3516,0.3555,0.3553,0.3551,0.355,0,0.2024,0.2117,0.2195,0.2321,0.2436,0.2539,0.2696,0.2743,0.2988,0.3197,0.3277,0.3341,0.3451,0.3518,0.3564,0.3566,0.3729,0.3663,0.3674,0.357,0.3509,0.349,0.3493,0.3529,0.3532,0.3534,0.3535,0,0.1965,0.1994,0.2111,0.2203,0.2331,0.2377,0.2479,0.258,0.2699,0.299,0.3009,0.3217,0.3413,0.3395,0.3437,0.3425,0.3363,0.3234,0.3267,0.3292,0.3149,0.3024,0.2882,0,0,0,0,0,0.189,0.1905,0.198,0.206,0.2175,0.2248,0.2415,0.2519,0.2741,0.2721,0.2858,0.2947,0.3018,0.3129,0.3057,0.3303,0.3375,0.3203,0.3243,0.3411,0.3435,0.3293,0,0,0,0,0,0,0.1837,0.1903,0.1924,0.1921,0.1947,0.2048,0.2143,0.2293,0.229,0.2528,0.2584,0.2766,0.2882,0.3031,0.3001,0.3033,0.2995,0.3339,0.3331,0.3397,0.3419,0.3439,0.3301,0,0,0,0,0]},{"header":{"parameterUnit":"m.s-1","parameterCategory":2,"la1":30.2991,"la2":30.254,"lo1":-89.0895,"lo2":-89.0444,"dy":0.0017,"dx":0.0017,"nx":28,"ny":28,"refTime":"2024-12-31T03:00:00:Z","depth":"4","parameterNumber":3,"parameterNumberName":"V-component_of_CURRENTS"},"data":[0,0,0,0,0,0,0,0,0,0,0,0,0,0,0,0,0,0,0,0,0,0,0,0,0,0,0,0,0,0,0,0,0,0,0,0,0,0,0,0,0,0,0,0,0,0,0,0,0,0,0,0,0,0,0,0,0,0,0.0214,0.0214,0,0.0169,0.0169,0.0168,0.0137,0.0137,0.0137,0.0137,0.0046,0.0044,0.0042,0,0,0,0,0,0,0,0,0,0,0,0,0,0.022,0.022,0.0214,0.0214,0.0213,0.017,0.0169,0.0168,0.0137,0.0137,0.0137,0.0137,0.0047,0.0044,0.0042,0,0,0,0,0,0,0,0,0,0,0,0,0,0.02,0.0221,0.0214,0.0194,0.0192,0.017,0.0169,0.0168,0.0137,0.0137,0.0137,0.0137,0.0048,0.0045,0.0041,0.0023,0,0,0.0031,0.0029,0,0,0,0,0,0,0,0,0.0201,0.0199,0.0197,0.0195,0.0193,0.016,0.0138,0.0118,0.0137,0.0156,0.0137,0.0137,0.0081,0.0075,0.0066,0.0019,0.0015,0.003,0.0028,0.0027,0.0026,0,0,0,0,0,0,0,0.0202,0.0201,0.0195,0.0197,0.0194,0.0169,0.0166,0.0134,0.0118,0.0155,0.0153,0.015,0.0079,0.0069,0.0063,0.0014,0.003,0.0027,0.0025,0.0024,-0.0047,-0.0047,0,0,0,0,0,0,0.0214,0.0202,0.0197,0.0194,0.0198,0.0169,0.0166,0.0169,0.012,0.0113,0.015,0.0149,0.0075,0.0067,0.006,0.0055,0.0027,0.0024,0.0022,-0.0047,-0.0047,-0.0047,0,0,0,0,0,0,0.0214,0.0214,0.0198,0.0198,0.0194,0.017,0.0174,0.0169,0.0163,0.0117,0.0109,0.015,0.0075,0.0065,0.004,0.005,0.0022,0.0019,-0.0047,-0.0047,-0.0047,0.0032,0,0,0,0,0,0,0.0215,0.0215,0.0221,0.0199,0.0195,0.0195,0.0174,0.0168,0.0162,0.016,0.0114,0.0105,0.0074,0.0046,0.0037,0.0045,0.0016,-0.0048,-0.0047,-0.0047,0.0029,0.0034,0.0039,0,0,0,0,0,0.0215,0.023,0.0222,0.0221,0.0205,0.0196,0.0192,0.0172,0.0162,0.0165,0.0135,0.0107,0.0041,0.0043,0.0033,0.004,-0.0048,-0.0047,-0.0047,0.0026,0.0033,0.0039,0,0,0,0,0,0,0.0234,0.0228,0.0218,0.0229,0.0217,0.0191,0.0193,0.0178,0.0157,0.0156,0.011,0.0099,0.008,0.0048,0.0051,0.0019,-0.0008,-0.001,0.0051,0.0057,0.0062,0.0082,0.0013,0,0,0,0,0,0.0242,0.0253,0.0236,0.0245,0.0242,0.0218,0.0212,0.0201,0.0179,0.017,0.0138,0.0103,0.0073,0.0057,0.0025,0.0008,-0.003,0.0005,0.001,0.0015,0.0023,-0.0025,-0.0023,-0.0045,-0.0045,-0.0045,0,0,0.0252,0.025,0.0255,0.025,0.0238,0.0246,0.0214,0.0214,0.022,0.0162,0.0159,0.012,0.0072,0.0056,0.0044,0.0031,0.0,0.0016,0.002,0.0026,-0.0025,-0.0023,-0.0021,-0.0045,-0.0045,-0.0045,0,0,0.028,0.0275,0.0294,0.0291,0.0283,0.027,0.0274,0.0254,0.0245,0.0233,0.0195,0.0166,0.012,0.0092,0.0069,0.0083,0.003,0.007,0.0114,0.0067,0.0069,0.007,0.0024,0.002,0.0074,0.0074,0.0074,0,0.029,0.0314,0.0296,0.0313,0.032,0.0287,0.0309,0.0294,0.0268,0.0266,0.0243,0.0179,0.0138,0.0117,0.0123,0.0097,0.006,0.0097,0.0075,0.0075,0.0075,0.0027,0.0022,0.0078,0.0077,0.0077,0.0076,0,0.0331,0.0351,0.0362,0.0376,0.0378,0.0393,0.0375,0.0372,0.0353,0.0335,0.031,0.025,0.0215,0.0193,0.0162,0.0143,0.0114,0.0089,0.0064,0.0082,0.003,0.0024,0.0083,0.0082,0.008,0.008,0,0,0.0353,0.0386,0.0391,0.0416,0.0418,0.0428,0.0437,0.0437,0.0452,0.0405,0.041,0.0348,0.0314,0.0286,0.0236,0.0192,0.0155,0.0147,0.0142,0.011,0.005,0.0033,0.0023,0.0125,0.0125,0.0124,0.0016,0,0.0391,0.0446,0.0449,0.0501,0.0529,0.0513,0.0527,0.0522,0.0507,0.05,0.0429,0.0413,0.0349,0.0337,0.0282,0.0191,0.0141,0.0187,0.003,0.0025,0.0014,0.0016,0.0122,0.001,0.0008,0.0007,0.0006,0,0.0431,0.0466,0.0527,0.0576,0.0587,0.061,0.0638,0.0651,0.0628,0.0616,0.0578,0.0521,0.0456,0.0396,0.0246,0.0278,0.0175,0.0093,0.0087,0.004,-0.0005,-0.0015,-0.0007,-0.0006,-0.0005,-0.0004,-0.0003,0,0.0462,0.0522,0.0578,0.0595,0.0638,0.0663,0.0686,0.0688,0.0721,0.0696,0.0707,0.0608,0.0571,0.0427,0.026,0.0253,0.0085,0.0052,-0.0067,-0.0069,-0.0055,-0.0055,-0.0059,-0.0059,-0.0059,-0.0059,-0.0058,0,0.0501,0.0548,0.0602,0.0634,0.071,0.0718,0.0793,0.0797,0.082,0.0864,0.0777,0.0774,0.0577,0.0455,0.0288,0.0096,0.0103,-0.0058,-0.0097,-0.0021,-0.0016,-0.0061,-0.0059,-0.0063,-0.0062,-0.0061,-0.006,0,0.0527,0.0558,0.0633,0.0698,0.0729,0.0785,0.0883,0.0937,0.0943,0.0995,0.0993,0.0902,0.0744,0.0533,0.0298,0.0147,-0.0045,-0.0119,-0.0014,-0.0047,-0.0178,-0.0172,-0.0261,-0.0262,-0.0263,-0.0264,-0.0265,0,0.0544,0.0585,0.0688,0.0746,0.0783,0.0876,0.0947,0.0997,0.1059,0.1071,0.1095,0.0971,0.0875,0.0546,0.031,-0.0016,-0.007,-0.018,-0.019,-0.0168,-0.0198,-0.019,-0.0182,-0.0267,-0.0268,-0.0268,-0.0268,0,0.0579,0.0616,0.0681,0.0803,0.0893,0.1005,0.1103,0.1156,0.1206,0.1215,0.1183,0.1009,0.0828,0.0559,0.0304,0.0068,-0.0114,-0.0194,-0.0194,-0.0204,-0.0178,-0.0204,-0.0195,-0.0273,-0.0272,-0.0272,-0.0271,0,0.0607,0.0656,0.0745,0.0854,0.0975,0.109,0.1144,0.1211,0.127,0.1268,0.1255,0.1058,0.0946,0.0602,0.0371,0.0134,0.0062,-0.0033,-0.0042,-0.004,0.0047,0.0114,0.0079,0,0,0,0,0,0.0632,0.0689,0.079,0.0909,0.1034,0.111,0.123,0.1273,0.1316,0.1305,0.1282,0.1113,0.0775,0.0643,0.0403,0.0322,0.0005,0.0029,-0.0112,-0.0297,-0.0292,-0.023,0,0,0,0,0,0,0.0644,0.0737,0.0787,0.094,0.1031,0.1175,0.1257,0.129,0.1284,0.1284,0.1124,0.1033,0.072,0.0915,0.0395,0.0323,0.0194,-0.0123,-0.0129,-0.03,-0.0295,-0.0291,-0.0226,0,0,0,0,0]}]]